Find Starlink 35348

NORAD ID: 65904 Int'l Des: 2025-224 Owner: SPXS Country: US Constellation: starlink operational
LEOCIRCULAR

当前视图

正在加载3D地球...

关于 Starlink 35348

正在加载描述...

即将过境

Passes for default location (London). Set your location on the main map for personalized predictions.

高度历史

Loading altitude history...

两行轨道根数

1 65904U 25224Y 26150.92933830 .00040202 00000-0 11940-2 0 9995
2 65904 53.1600 348.0643 0001013 97.0527 263.0591 15.34416195 37436
Epoch: May 30, 2026 • Age: 18 hours

当前状态

高度 462.7 km
速度 7.64 km/s
星下点 22.45°N, 15.13°E
发射日期 Oct 7, 2025
运行时间 0.6 years
类型 internet

技术详情

分类 Payload
质量 575.00 kg
干质量 530.00 kg
总质量 575.00 kg
长度 0.30 m
直径 4.10 m
跨度 29.00 m
形状 Box + pan
制造商 SPXS
平台类型 Starlink V2MO
阶段状态 In Orbit
所有者/国家 SPXS/US

Most Searched